User: anonymous   Login
Location: Arleux
(50.3632°N, 2.8721°E)
Time: 13:54:10
(UTC+00:00)
Language:

Cosmos 2026 Rocket - Orbit

View from above orbital plane
View from above orbital plane
View from above satellite
View from above satellite

Ground track
Ground track

The orbit data is extracted from the following two-line orbital elements,

1 20046U 89042B   20052.77832487 +.00000086 +00000-0 +70102-4 0  9998
2 20046 082.9366 293.1257 0041443 200.0936 159.8593 13.78172933543975
Epoch (UTC): 21 February 2020 18:40:47
Eccentricity: 0.0041443
inclination: 82.9366°
perigee height: 940 km
apogee height: 1001 km
right ascension of ascending node: 293.1257°
argument of perigee: 200.0936°
revolutions per day: 13.78172933
mean anomaly at epoch: 159.8593°
orbit number at epoch: 54397

The dashed part of the orbit path shows where the satellite is in the earth's shadow,  

DLR